STARLINK-32920, 62925

Orbit data source: Space-Track

STARLINK-32920, 62925 is a payload satellite owned by SpaceX/Seattle (US) in LEO that was launched on Sat, 08 Feb 2025 UTC via an FALCON 9 launch vehicle from the Air Force Eastern Test Range (AFETR). Payload-class satellites include a variety of spacecraft equipped with specific instruments for various scientific and technological missions. These include communications satellites like Starlink; space stations such as the ISS; scientific satellites like the Hubble; Earth observation satellites from companies like Planet Labs, Umbra, and HawkEye 360; GPS; miniature CubeSats for education and research; and military/defense satellites.

Loading next visibility...
Identifier
62925, 2025-027U
Orbit
LEO
Country
Flag of USUS
Related business
Manufacturer
SpaceX/Seattle
Mission
Operational Commercial Communications
Bus & Motor
STARLINK V2M, Unknown motor
Mass
730 kg wet, ~700 kg dry
Launch date (UTC)
2025-02-08 (7 months ago)
Launch vehicle
FALCON 9
Launch site
Air Force Eastern Test Range (AFETR)
Object type
Payload
Rocket body
Debris
Shape & HBR
Box + 2 Pan, 14.5 m
Radar Cross Section
33.884 m², Large (>1 m²)

Expand to show TLE details & history
Last TLE update: 2 days ago

TLE from 2 days ago
0 STARLINK-32920
1 62925U 25027U   25259.83223905  .00028780  00000-0  10510-2 0  9999
2 62925  43.0034  30.6674 0001955 265.5255  94.5373 15.27589878 34958
Epoch: 2025-09-16T19:58Z
TLE epoch observation values (Epoch: 2025-09-16T19:58:25.453Z)
Latitude
-0.00006°
Longitude
95.04439°
Altitude
482.902 km
Speed
7.626 km/s
True Right ascension
02h 02m 40s
True Declination
0° 00' 00"
Sunlit
Object was in full shadow at epoch
Visualization orbit readout
Latitude
Unknown
Longitude
Unknown
Altitude
Unknown
Speed
Unknown
Apparent Right ascension
Unknown
Apparent Declination
Unknown
Sunlit
N/A
Visualization observer readout
Local Sidereal Time
11:20:39
Azimuth
Unknown
Elevation
Unknown
Doppler factor
Unknown
Orbital elements
Apogee altitude
486.306 km
Perigee altitude
483.622 km
Semi-major axis
6,863.101 km
Eccentricity
0.0002
Inclination
43.0034°
RAAN
30.6674°
Arg. of periapsis
265.5255°
True anomaly
94.55963°
Mean anomaly
94.5373°
Eccentric anomaly
94.54847°
Mean motion
3.81736 °/min
Orbital period
94.31 mins
BSTAR
0.001051
Loading maneuver chart data...
Computing Atmospheric mass density...
Loading historical data...
Loading historical data...
Loading historical data...
Loading historical data...
Loading historical data...
Loading historical data...
Loading historical data...

Documentation

Showing up to 5 results
|